Wind_Speed
6 12 15 15 16 20 25 26 28 31 34 36 37 39 36 32 30 28 26 24 26 26 28 27 27 29 26 25 26 26 26 26 27 27 24 26 29 31 29 29 31 27 26
12 12 14 16 19 24 26 29 31 34 37 38 35 33 31 29 28 27 26 26 25 26 27 28 28 28 29 30 30 28 28 29 27 24 29 25 29 34 38 34 35 34 28
13 14 16 19 22 26 30 33 34 34 32 33 31 29 27 26 26 25 24 23 23 23 25 26 26 29 29 30 31 32 32 30 30 30 27 29 29 36 41 39 35 34 32
12 17 21 25 28 30 31 31 30 30 29 28 27 24 23 22 21 21 22 21 20 20 21 22 24 27 30 31 32 31 33 34 34 33 32 32 33 30 37 32 43 24 33
17 20 24 25 25 25 25 24 24 22 22 22 23 22 21 20 20 18 19 20 19 19 20 22 22 23 26 30 34 36 36 34 37 36 34 33 31 31 33 30 25 23 35
23 26 25 24 22 22 23 23 23 23 22 21 20 20 20 21 21 21 20 19 20 20 20 20 22 24 25 26 28 32 35 38 39 40 38 37 30 30 31 30 30 30 33
24 23 22 21 21 22 21 20 19 19 19 20 20 21 21 21 22 22 22 22 22 22 22 22 22 23 24 25 27 30 32 35 38 38 41 40 35 33 32 34 34 32 32
20 19 18 16 16 15 16 16 17 19 19 20 20 20 19 20 20 21 23 23 24 24 24 23 24 24 26 25 25 27 30 33 36 36 39 36 40 38 36 35 34 34 33
17 16 15 15 14 15 16 17 17 18 18 18 19 19 19 19 20 21 22 22 22 23 24 25 24 24 26 26 25 25 25 26 34 39 42 41 40 35 42 40 40 38 35
18 17 14 13 13 14 15 15 16 16 17 17 17 19 22 24 25 25 26 25 25 24 23 23 25 26 26 27 27 26 24 24 26 31 38 42 43 42 45 45 41 42 39
16 14 11 11 12 13 14 14 14 13 14 16 19 20 19 21 24 26 25 24 24 24 24 24 23 23 24 24 26 26 26 23 22 24 27 33 39 42 39 40 44 41 40
13 11 11 12 12 12 12 11 11 12 15 16 15 16 19 21 23 25 26 26 26 25 25 25 25 24 24 23 22 23 24 23 25 20 20 21 26 32 38 39 39 42 41
11 10 11 12 10 10 10 11 13 15 15 12 12 15 18 20 23 25 25 26 26 25 24 23 23 24 25 25 26 24 21 22 21 21 20 22 20 25 27 35 37 38 39
10 9 9 7 8 8 9 11 13 13 13 12 14 17 18 19 23 25 23 23 23 24 23 23 23 24 25 25 25 25 25 24 17 21 21 21 20 21 25 23 31 33 38
8 7 5 5 6 7 10 11 12 14 15 16 18 18 18 20 24 25 23 23 23 23 24 25 25 24 23 23 23 23 22 21 21 24 28 18 24 24 23 25 27 28 31
7 4 3 4 7 9 11 14 16 17 19 18 19 18 19 22 24 26 22 22 22 23 25 26 27 26 26 25 25 24 23 23 22 22 23 27 29 31 27 25 28 28 32
3 2 4 7 9 11 13 15 15 14 16 19 20 20 21 23 25 22 22 22 25 26 25 27 27 26 25 25 26 26 26 24 23 23 22 22 24 27 28 23 25 30 32
2 4 6 8 10 13 13 13 16 17 19 19 19 19 21 23 24 25 26 27 25 24 25 27 29 26 26 26 25 25 26 26 25 24 23 22 21 24 22 26 28 24 25
4 5 7 9 11 12 11 13 17 20 19 20 22 23 27 28 30 28 26 26 25 26 30 28 27 27 28 28 27 27 27 27 26 25 25 24 22 22 22 24 25 23 25
6 6 7 8 9 10 11 15 19 21 23 24 27 30 32 33 32 33 30 23 24 28 28 33 32 31 32 31 30 31 29 28 27 27 26 25 24 22 20 20 21 22 22
5 4 6 6 9 10 11 14 18 22 25 26 27 32 32 30 31 32 30 24 25 30 32 31 31 38 37 36 37 32 30 31 29 28 27 26 26 24 22 21 20 19 24
3 4 5 7 10 13 16 19 22 25 29 29 30 30 31 31 31 29 27 26 28 29 33 31 32 34 32 32 35 35 33 32 31 29 28 26 25 25 24 22 21 20 19
3 3 7 10 13 17 20 23 27 31 30 30 32 31 31 30 29 27 26 26 27 29 31 27 30 32 29 32 35 34 34 32 31 30 28 27 25 24 24 23 23 22 21
3 6 9 12 16 19 24 31 30 29 29 29 29 30 30 28 27 26 25 25 26 26 27 28 28 28 29 30 32 32 32 31 30 29 28 27 25 24 23 23 22 22 23
7 11 14 17 22 25 26 32 28 27 27 28 28 28 28 27 26 25 24 24 24 24 24 25 26 28 30 32 32 32 32 32 31 30 29 28 26 24 24 23 22 22 21
9 14 17 21 26 29 32 30 26 26 27 28 27 26 26 25 25 24 23 22 21 21 23 25 27 30 32 33 34 34 33 32 31 30 29 28 27 26 25 23 22 22 21
Wind_Direction
291 278 280 278 278 279 293 303 304 306 307 307 309 309 306 306 305 302 297 290 282 277 272 273 274 271 269 270 270 268 266 269 277 249 249 247 247 250 245 243 246 246 253
274 286 290 292 293 294 300 306 305 303 305 313 315 312 310 310 308 303 297 290 284 280 277 275 272 270 267 265 265 267 269 268 271 268 251 260 254 251 245 249 254 241 249
277 290 302 302 302 306 304 302 306 313 315 313 312 312 312 314 311 307 304 298 293 287 281 277 275 272 268 265 262 260 262 265 265 263 260 259 261 255 252 249 244 229 251
299 306 304 306 305 306 309 316 316 315 316 314 314 319 322 320 317 314 312 309 306 299 293 287 280 273 269 266 264 262 260 260 262 264 261 260 265 257 255 257 248 227 247
300 304 308 312 314 315 314 312 315 318 320 326 331 329 330 328 325 322 321 317 315 309 303 299 293 285 276 268 264 261 259 257 259 261 262 261 262 259 261 267 259 251 253
320 323 322 319 316 316 321 327 331 332 333 332 330 329 329 329 328 328 325 319 315 313 309 304 297 291 284 280 275 269 263 257 253 253 259 259 258 257 259 263 262 254 254
321 317 315 317 322 324 324 327 329 327 328 330 330 328 327 326 325 325 324 321 318 315 310 306 302 297 291 285 279 274 269 265 259 252 250 253 257 255 256 257 260 257 255
317 315 314 318 318 323 328 328 328 328 325 322 324 327 326 327 326 326 326 326 323 320 316 311 305 300 294 288 282 277 274 269 264 260 248 251 254 253 253 256 258 259 257
318 315 319 326 329 331 330 327 322 319 323 327 329 332 336 340 341 341 338 334 331 328 325 322 317 309 301 295 287 279 272 269 264 261 259 253 246 252 254 253 255 259 261
318 321 326 329 332 324 318 317 320 327 331 335 340 344 344 344 343 342 338 334 332 330 329 325 321 319 315 307 299 290 280 270 269 263 259 258 256 251 250 252 254 254 254
317 314 319 322 318 317 320 325 329 337 343 345 344 346 351 350 347 346 346 344 340 336 332 328 324 323 322 317 310 302 293 285 279 273 265 260 259 258 252 253 246 250 250
305 310 316 314 318 324 328 333 338 341 343 343 349 353 351 350 350 350 350 348 346 342 338 332 328 328 328 332 323 308 295 288 285 280 281 279 263 254 253 247 250 248 248
303 308 310 315 326 333 336 340 339 337 336 340 345 346 343 347 349 348 346 345 342 340 341 339 333 332 334 334 334 330 316 295 283 286 289 279 276 263 255 246 248 248 247
298 303 308 323 336 345 346 340 340 342 338 330 328 329 331 336 340 342 340 340 337 337 338 338 340 340 335 332 331 330 331 325 293 301 276 278 273 277 260 250 251 247 248
288 294 312 332 342 343 342 343 341 337 333 328 323 321 327 335 342 345 341 337 338 340 342 339 337 334 332 332 335 333 328 335 312 297 281 284 269 273 264 258 252 252 252
275 288 329 336 337 341 342 340 336 333 335 333 337 332 334 335 338 340 341 339 339 339 339 339 337 334 332 330 330 331 332 336 324 333 300 292 283 277 276 258 252 256 256
286 321 326 327 339 341 338 334 334 345 349 345 342 338 337 337 334 335 333 330 333 334 335 340 337 333 333 331 329 327 327 329 325 330 332 322 302 280 279 286 275 250 251
305 300 308 325 336 335 339 348 346 347 347 351 351 350 347 345 338 333 332 329 329 336 338 339 345 338 336 336 334 330 328 326 325 324 325 324 327 302 290 274 283 269 253
284 289 309 324 332 330 337 347 347 351 345 338 341 345 343 345 345 341 331 330 328 329 333 332 336 342 338 336 336 333 330 328 326 324 322 318 321 321 319 291 278 284 279
290 302 314 328 328 332 336 338 346 351 347 345 348 343 333 328 331 336 337 325 325 330 327 320 326 324 335 331 329 329 326 325 324 322 321 317 315 312 307 321 294 274 273
303 350 357 355 355 354 346 343 341 339 333 329 329 322 329 324 327 328 325 324 316 318 321 321 314 313 316 318 327 328 324 321 319 318 317 315 312 314 305 301 309 304 276
11 21 8 4 356 351 347 340 331 331 326 326 324 327 327 327 326 323 320 313 315 315 315 317 317 320 313 318 321 324 323 320 318 315 313 311 308 305 306 298 296 292 309
80 34 7 355 347 343 340 334 327 323 326 323 323 327 327 326 323 320 317 315 317 317 323 322 314 317 323 323 320 322 322 321 319 317 314 311 307 302 299 299 293 292 288
24 0 347 340 332 331 332 333 325 319 320 322 326 328 328 326 324 323 322 323 322 323 325 326 327 328 328 326 324 324 323 321 321 319 316 314 309 303 298 295 293 289 284
334 326 335 333 329 326 328 328 323 321 324 327 328 327 327 326 325 326 326 326 327 328 329 329 329 330 329 328 326 325 323 321 319 317 316 313 310 306 300 296 292 288 284
320 327 329 325 321 323 325 322 322 325 328 327 327 328 329 329 329 327 328 328 329 330 331 331 331 331 330 329 327 325 324 323 320 318 316 313 309 304 300 296 292 290 286
Height
3169 3169 3168 3167 3165 3165 3163 3161 3158 3155 3153 3150 3146 3143 3140 3137 3135 3132 3130 3129 3129 3127 3127 3126 3127 3126 3127 3127 3126 3126 3126 3127 3126 3129 3132 3133 3134 3136 3136 3137 3138 3140 3142
3168 3166 3164 3162 3161 3159 3156 3153 3151 3149 3146 3140 3135 3134 3131 3128 3126 3125 3123 3122 3120 3118 3118 3117 3117 3117 3118 3119 3119 3120 3119 3119 3119 3120 3122 3124 3125 3127 3127 3128 3129 3129 3131
3164 3162 3160 3158 3155 3152 3150 3147 3143 3139 3135 3133 3130 3128 3125 3122 3120 3117 3115 3114 3112 3110 3109 3108 3108 3107 3108 3109 3110 3111 3112 3111 3111 3112 3115 3115 3116 3118 3119 3118 3122 3120 3123
3159 3157 3155 3153 3150 3146 3142 3137 3135 3133 3130 3128 3126 3121 3118 3115 3115 3112 3109 3107 3105 3103 3101 3100 3100 3099 3099 3099 3099 3101 3103 3104 3104 3104 3105 3106 3107 3110 3107 3108 3096 3109 3115
3156 3154 3150 3145 3141 3138 3136 3135 3132 3129 3126 3122 3118 3117 3114 3111 3110 3108 3105 3102 3100 3097 3094 3093 3092 3091 3090 3090 3090 3091 3092 3095 3095 3096 3096 3098 3100 3101 3100 3100 3105 3106 3105
3147 3143 3141 3139 3137 3135 3131 3128 3125 3123 3120 3119 3117 3114 3111 3108 3105 3103 3100 3097 3095 3092 3090 3088 3086 3084 3082 3081 3081 3082 3082 3083 3084 3086 3087 3088 3091 3092 3092 3092 3093 3097 3100
3143 3141 3139 3136 3132 3130 3128 3126 3124 3122 3120 3117 3114 3111 3108 3104 3102 3099 3096 3092 3089 3087 3084 3082 3080 3077 3075 3074 3073 3072 3072 3072 3072 3074 3075 3078 3081 3083 3084 3084 3085 3086 3088
3140 3138 3136 3133 3131 3129 3127 3125 3123 3120 3117 3115 3112 3108 3105 3103 3100 3096 3092 3087 3084 3081 3079 3076 3074 3071 3068 3067 3065 3064 3063 3062 3062 3062 3063 3068 3070 3072 3073 3074 3075 3076 3079
3138 3136 3133 3129 3127 3125 3123 3122 3121 3119 3115 3112 3108 3105 3102 3099 3095 3092 3088 3084 3081 3077 3073 3069 3067 3065 3061 3059 3058 3057 3056 3054 3051 3051 3052 3055 3058 3060 3062 3063 3065 3067 3069
3133 3130 3128 3125 3124 3124 3123 3121 3119 3115 3112 3108 3105 3102 3097 3094 3091 3087 3084 3080 3077 3073 3070 3066 3063 3059 3055 3051 3049 3047 3047 3046 3044 3042 3042 3042 3045 3048 3050 3051 3054 3055 3058
3129 3128 3126 3124 3123 3122 3120 3118 3115 3112 3109 3106 3103 3099 3096 3093 3089 3085 3081 3077 3073 3069 3066 3063 3058 3054 3050 3046 3042 3040 3038 3037 3037 3035 3034 3033 3034 3035 3039 3040 3042 3043 3046
3128 3125 3123 3123 3121 3119 3117 3115 3112 3109 3106 3103 3100 3098 3095 3091 3087 3083 3078 3074 3070 3067 3063 3058 3053 3049 3045 3042 3038 3035 3031 3029 3027 3027 3026 3026 3025 3024 3026 3028 3030 3032 3035
3123 3122 3121 3120 3118 3116 3114 3112 3109 3107 3104 3101 3099 3096 3092 3089 3085 3080 3076 3071 3068 3064 3060 3056 3051 3046 3042 3037 3033 3029 3026 3022 3020 3019 3018 3018 3017 3016 3015 3017 3020 3022 3024
3121 3121 3119 3117 3116 3114 3113 3111 3108 3105 3102 3100 3097 3094 3090 3087 3082 3078 3074 3070 3066 3061 3057 3052 3048 3043 3039 3035 3031 3026 3021 3017 3014 3012 3011 3010 3009 3008 3008 3008 3009 3011 3012
3120 3118 3116 3115 3113 3112 3110 3107 3105 3102 3100 3097 3093 3090 3087 3083 3079 3075 3071 3068 3063 3058 3053 3049 3045 3041 3037 3033 3028 3023 3019 3014 3010 3007 3004 3001 3001 3000 3000 3000 3000 3001 3002
3116 3115 3114 3112 3111 3109 3107 3104 3102 3099 3096 3093 3090 3086 3082 3079 3075 3072 3068 3063 3059 3055 3051 3046 3042 3037 3032 3027 3023 3019 3015 3011 3006 3002 2998 2994 2993 2991 2991 2991 2992 2992 2993
3113 3112 3111 3109 3108 3106 3104 3102 3100 3097 3093 3090 3086 3082 3079 3076 3072 3068 3064 3060 3055 3052 3047 3043 3038 3033 3028 3024 3019 3014 3010 3006 3002 2998 2994 2989 2985 2983 2982 2982 2981 2982 2983
3109 3110 3109 3108 3105 3103 3101 3099 3097 3094 3090 3088 3085 3081 3078 3074 3069 3064 3060 3055 3051 3047 3044 3039 3035 3030 3025 3020 3016 3011 3006 3002 2998 2994 2990 2985 2981 2977 2975 2975 2974 2972 2973
3108 3108 3106 3104 3102 3100 3099 3097 3094 3091 3087 3084 3081 3078 3073 3070 3065 3060 3056 3051 3048 3044 3040 3036 3032 3028 3023 3017 3012 3007 3002 2997 2993 2989 2985 2980 2977 2973 2969 2967 2966 2965 2963
3107 3105 3103 3102 3101 3099 3096 3094 3091 3088 3085 3081 3078 3074 3070 3066 3061 3056 3051 3047 3044 3040 3036 3031 3027 3022 3017 3012 3008 3003 2998 2993 2988 2984 2979 2975 2971 2968 2965 2962 2958 2958 2957
3104 3102 3101 3100 3098 3096 3094 3091 3089 3086 3083 3079 3075 3071 3066 3060 3056 3051 3047 3044 3039 3035 3030 3026 3021 3017 3012 3007 3003 2998 2993 2988 2983 2978 2974 2970 2965 2962 2959 2956 2954 2950 2948
3101 3101 3100 3098 3097 3094 3092 3089 3086 3082 3078 3073 3069 3064 3059 3054 3049 3045 3041 3037 3033 3029 3024 3019 3016 3010 3005 3001 2996 2991 2986 2981 2976 2971 2967 2963 2959 2956 2952 2950 2947 2945 2942
3100 3100 3098 3097 3094 3092 3089 3086 3082 3078 3073 3068 3064 3059 3054 3049 3044 3039 3035 3030 3026 3022 3018 3013 3009 3005 3000 2995 2990 2985 2979 2974 2969 2964 2959 2956 2952 2949 2946 2943 2940 2938 2937
3099 3098 3097 3095 3092 3089 3085 3082 3077 3072 3068 3063 3058 3052 3047 3043 3038 3033 3028 3024 3020 3016 3012 3008 3004 2999 2994 2990 2984 2978 2972 2967 2962 2957 2952 2948 2945 2941 2938 2936 2934 2932 2930
3098 3097 3095 3092 3089 3085 3081 3076 3071 3067 3062 3058 3052 3047 3042 3037 3032 3027 3023 3019 3015 3011 3007 3003 2999 2994 2989 2984 2978 2972 2966 2960 2955 2950 2945 2941 2937 2934 2931 2928 2926 2925 2923
3097 3095 3092 3089 3085 3080 3076 3071 3066 3062 3056 3052 3047 3041 3036 3032 3027 3023 3018 3015 3011 3007 3003 2999 2994 2989 2983 2977 2970 2964 2958 2953 2947 2942 2937 2933 2929 2926 2923 2921 2919 2917 2915